Voltar ao catálogo

STARLINK-36521

AtivoComunicaçõesVLEO
NORAD 67507·PAYLOAD·🇺🇸 United States

Lançado Jan 18, 2026 de Cape Canaveral Space Force Station

Loading…

Próximas Passagens (próximas 24 horas)

TLE

AtualizadoSource: CelesTrak SupGP

Época: Sep 15, 2026, 03:57 UTC

1 67507C 26012Q   26258.16506944  .00040239  00000+0  14570-2 0  2588
2 67507  43.0021 323.9461 0001284 263.5722 115.9476 15.27569163    16

Acompanhe STARLINK-36521 em tempo real com AllMySat

Download on the App Store